Regional Weather Roundup
Issued by NWS

Home | Current Version | Previous Version | Text Only | Print | Product List | Glossary On
Versions: 1 2 3 4 5 6 7 8 9 10 11 12 13 14 15 16 17 18 19 20 21 22 23 24 25 26 27 28 29 30 31 32 33 34 35 36 37 38 39 40 41 42 43 44 45 46 47 48 49 50
000
ASUS43 KDMX 280001
RWRIA

WEATHER ROUNDUP FOR IOWA
NATIONAL WEATHER SERVICE DES MOINES IA
700 PM CDT THU APR 27 2017

NOTE: "FAIR" INDICATES FEW OR NO CLOUDS BELOW 12,000 FEET WITH NO
SIGNIFICANT WEATHER AND/OR OBSTRUCTIONS TO VISIBILITY.

* - THESE STATIONS ARE NOT NWS STATIONS...THUS NOT UNDER NWS
QUALITY CONTROL.  THEY ALSO DO NOT REPORT WEATHER SUCH
AS PRECIPITATION OR FOG.

IAZ001>003-012>014-020>022-031>034-043>046-280100-
   NORTHWEST IOWA

CITY           SKY/WX    TMP DP  RH WIND       PRES   REMARKS
CARROLL *      SUNNY     52  34  50 NW10      29.72R
CHEROKEE *     SUNNY     47  36  65 N3        29.72R
DENISON *      CLOUDY    52  34  50 NW7       29.73R
LE MARS *      SUNNY     52  34  50 W8        29.71S
ORANGE CITY *  SUNNY     48  36  61 W6        29.71R
SHELDON *      PTSUNNY   46  34  61 N7        29.70R
SIOUX CITY     SUNNY     53  36  52 N8        29.71R
6HR MIN TEMP:  45; 6HR MAX TEMP:  54;

SPENCER        CLOUDY    43  32  65 NW9       29.73R
6HR MIN TEMP:  38; 6HR MAX TEMP:  44;

STORM LAKE *   SUNNY     46  34  61 N5        29.72R
$$

IAZ055>058-069>071-079>083-090>094-280100-
   SOUTHWEST IOWA

CITY           SKY/WX    TMP DP  RH WIND       PRES   REMARKS
ATLANTIC *     SUNNY     55  34  44 W6        29.73R
AUDUBON *      MOSUNNY   54  36  50 W3        29.73R
CLARINDA *     CLOUDY    57  32  38 NW6       29.75R
COUNCIL BLFS * CLOUDY    55  34  44 CALM      29.72R
CRESTON *      SUNNY     55  32  41 W9        29.74R
HARLAN  *      CLOUDY    55  36  47 W8G14     29.76R
LAMONI         MOSUNNY   57  38  48 SW9       29.72R
6HR MIN TEMP:  50; 6HR MAX TEMP:  59;

RED OAK *      MOSUNNY   55  34  44 W3        29.73R
SHENANDOAH *   CLOUDY    57  34  41 W5        29.73S
$$

IAZ047>049-059>061-072>074-084-280100-
   CENTRAL IOWA

CITY           SKY/WX    TMP DP  RH WIND       PRES   REMARKS
AMES           SUNNY     48  34  58 N9        29.73R
6HR MIN TEMP:  40; 6HR MAX TEMP:  49;

ANKENY *       SUNNY     52  36  54 N7        29.74R
BOONE *        SUNNY     46  34  61 NW9G16    29.72S
CHARITON *     PTSUNNY   57  39  51 NW9       29.72R
DES MOINES     PTSUNNY   56  35  45 NW7       29.73R
6HR MIN TEMP:  45; 6HR MAX TEMP:  58;

GRINNELL*      SUNNY     48  34  58 NW9       29.74R
KNOXVILLE *    PTSUNNY   55  36  47 NW12      29.71R
MARSHALLTOWN   CLOUDY    43  32  65 NW13      29.73R
6HR MIN TEMP:  38; 6HR MAX TEMP:  45;

NEWTON *       SUNNY     50  34  53 NW8       29.73R
PELLA *        PTSUNNY   56  37  48 NW6       29.74R
PERRY *          N/A     51  33  49 N9        29.73R
$$

IAZ004>006-015-016-023>025-035-036-280100-
   NORTH CENTRAL IOWA

CITY           SKY/WX    TMP DP  RH WIND       PRES   REMARKS
ALGONA *       CLOUDY    41  32  70 NW10      29.73R
CLARION *      CLOUDY    41  32  70 W14       29.73R
ESTHERVILLE    CLOUDY    39  32  76 NW13      29.72R WCI  31
6HR MIN TEMP:  33; 6HR MAX TEMP:  40;

FORT DODGE *   SUNNY     43  30  61 NW9       29.75R
MASON CITY     CLOUDY    38  29  70 NW16      29.73R WCI  29
6HR MIN TEMP:  34; 6HR MAX TEMP:  38;

FOREST CITY *  CLOUDY    37  27  65 NW13      29.73R WCI  29
WEBSTER CITY * SUNNY     45  32  61 NW14      29.72R
IOWA FALLS *   PTSUNNY   44  32  61 W13       29.74R
$$

IAZ007>011-017>019-026>030-037>042-050>054-066-280100-
   NORTHEAST IOWA

CITY           SKY/WX    TMP DP  RH WIND       PRES   REMARKS
CEDAR RAPIDS   CLOUDY    44  35  70 NW13      29.74R
6HR MIN TEMP:  40; 6HR MAX TEMP:  45;

CHARLES CITY * CLOUDY    39  28  65 W10G17    29.73R WCI  32
CLINTON *      CLOUDY    44  37  76 W12       29.76R
DECORAH *      CLOUDY    37  30  75 W8G17     29.70R WCI  31
DUBUQUE        CLOUDY    40  32  73 W16       29.73R WCI  31
6HR MIN TEMP:  39; 6HR MAX TEMP:  41;

MONTICELLO *   CLOUDY    43  32  65 W14G20    29.74R
WATERLOO       CLOUDY    42  29  59 W8        29.73R
6HR MIN TEMP:  39; 6HR MAX TEMP:  42;

$$

IAZ064-065-067-068-078-280100-
   EAST CENTRAL IOWA

CITY           SKY/WX    TMP DP  RH WIND       PRES   REMARKS
DAVENPORT      MOCLDY    46  37  71 W8        29.75R
6HR MIN TEMP:  41; 6HR MAX TEMP:  46;

IOWA CITY      MOSUNNY   48  36  63 W9        29.76R
6HR MIN TEMP:  41; 6HR MAX TEMP:  49;

MUSCATINE *    CLOUDY    50  37  62 CALM      29.76R
QUAD CITIES    MOCLDY    48  36  63 W7        29.76R
6HR MIN TEMP:  43; 6HR MAX TEMP:  48;

$$

IAZ062-063-075>077-085>089-095>099-280100-
   SOUTHEAST IOWA

CITY           SKY/WX    TMP DP  RH WIND       PRES   REMARKS
BURLINGTON     PTCLDY    54  42  64 W5        29.74R
6HR MIN TEMP:  44; 6HR MAX TEMP:  54;

FAIRFIELD *    PTSUNNY   54  39  58 NW6       29.73R
FORT MADISON * MOCLDY    55  43  62 SW5       29.76R
KEOKUK *       MOCLDY    54  43  66 SW5       29.75R
OSKALOOSA *      N/A     54  38  54 N6        29.73R
OTTUMWA        PTSUNNY   54  38  54 W7        29.73R
6HR MIN TEMP:  45; 6HR MAX TEMP:  57;

WASHINGTON *   MOSUNNY   52  39  62 NW3       29.75R
$$

ABBREVIATIONS USED IN REMARKS
   TC - TEMPERATURES IN CELSIUS
  WCI - WIND CHILL INDEX
   HX - HEAT INDEX
  VSB - VISIBILITY
$$





USA.gov is the U.S. government's official web portal to all federal, state and local government web resources and services.